DW7287 Weather Reports


Display with metric or nautical units.
time (UTC)temp
F
wind
direction
speed
MPH
gust
MPH
rain 1hr
in
rain 24hr
in
rain mn
in
humidity
%
barometer
mb
20260902181605 91 47 0.0 4.0 0.00 0.00 0.00 59 1018.9
20260902180133 92 258 1.0 4.0 0.00 0.00 0.00 59 1019.1
20260902174611 91 98 1.0 5.0 0.00 0.00 0.00 59 1019.3
20260902173105 91 0 2.0 5.0 0.00 0.00 0.00 59 1019.4
20260902171608 91 44 1.0 4.0 0.00 0.00 0.00 61 1019.6
20260902170107 91 0 1.0 6.0 0.00 0.00 0.00 62 1019.7
20260902164606 91 149 1.0 5.0 0.00 0.00 0.00 64 1020.0
20260902163108 91 78 1.0 4.0 0.00 0.00 0.00 63 1020.3
20260902161606 90 0 1.0 8.0 0.00 0.00 0.00 63 1020.3
20260902160107 90 310 2.0 6.0 0.00 0.00 0.00 64 1020.6
20260902154603 89 360 1.0 5.0 0.00 0.00 0.00 65 1020.7
20260902153057 89 313 1.0 4.0 0.00 0.00 0.00 65 1020.8
20260902151602 88 255 0.0 3.0 0.00 0.00 0.00 68 1020.9
20260902150105 87 42 0.0 4.0 0.00 0.00 0.00 68 1020.8
20260902144603 87 257 2.0 4.0 0.00 0.00 0.00 69 1020.6
20260902143105 86 0 0.0 3.0 0.00 0.00 0.00 71 1020.5
20260902141615 85 288 0.0 3.0 0.00 0.00 0.00 73 1020.5
20260902140103 83 286 0.0 2.0 0.00 0.00 0.00 75 1020.5
20260902134601 82 269 0.0 3.0 0.00 0.00 0.00 80 1020.5
20260902133059 80 0 0.0 2.0 0.00 0.00 0.00 86 1020.4
20260902131606 77 0 0.0 3.0 0.00 0.00 0.00 90 1020.2
20260902124602 74 90 0.0 2.0 0.00 0.00 0.00 97 1020.0
20260902123057 72 0 0.0 1.0 0.00 0.00 0.00 97 1019.9
20260902121605 71 0 0.0 1.0 0.00 0.00 0.00 97 1019.9
20260902120104 70 0 0.0 1.0 0.00 0.00 0.00 96 1020.0
20260902114600 69 0 0.0 0.0 0.00 0.00 0.00 96 1019.9
20260902113112 69 0 0.0 0.0 0.00 0.00 0.00 96 1019.6
20260902111603 69 0 0.0 0.0 0.00 0.00 0.00 96 1019.6
20260902110101 69 0 0.0 0.0 0.00 0.00 0.00 96 1019.6
20260902104559 69 0 0.0 0.0 0.00 0.00 0.00 96 1019.5
20260902103058 69 0 0.0 0.0 0.00 0.00 0.00 96 1019.5
20260902101620 69 0 0.0 0.0 0.00 0.00 0.00 96 1019.5
20260902100100 69 0 0.0 1.0 0.00 0.00 0.00 96 1019.4
20260902094601 69 26 0.0 0.0 0.00 0.00 0.00 96 1019.4
20260902093058 69 0 0.0 1.0 0.00 0.00 0.00 96 1019.4
20260902091606 69 0 0.0 0.0 0.00 0.00 0.00 96 1019.3
20260902090127 70 0 0.0 0.0 0.00 0.00 0.00 96 1019.3
20260902084603 70 0 0.0 0.0 0.00 0.00 0.00 96 1019.1
20260902083100 70 0 0.0 1.0 0.00 0.00 0.00 96 1019.0
20260902081604 70 28 0.0 0.0 0.00 0.00 0.00 96 1019.1
20260902080111 70 0 0.0 1.0 0.00 0.00 0.00 96 1019.0
20260902074600 70 0 0.0 0.0 0.00 0.00 0.00 95 1019.0
20260902073100 70 0 0.0 0.0 0.00 0.00 0.00 95 1019.0
20260902071603 70 0 0.0 0.0 0.00 0.00 0.00 95 1018.9
20260902070107 70 0 0.0 0.0 0.00 0.00 0.00 95 1018.8
20260902064607 71 0 0.0 1.0 0.00 0.00 0.00 95 1018.9
20260902063058 71 0 0.0 0.0 0.00 0.00 0.00 95 1019.0
20260902061624 71 0 0.0 0.0 0.00 0.00 0.00 95 1019.0
20260902060106 71 0 0.0 1.0 0.00 0.00 0.00 95 1018.9
20260902054604 71 0 0.0 0.0 0.00 0.00 0.00 95 1018.9
20260902053104 71 0 0.0 1.0 0.00 0.00 0.00 95 1018.8
20260902051558 71 0 0.0 1.0 0.00 0.00 0.00 94 1018.7
20260902050107 72 0 0.0 1.0 0.00 0.00 0.00 94 1018.5
20260902044605 72 0 0.0 1.0 0.00 0.00 0.00 94 1018.4
20260902043102 72 0 0.0 0.0 0.00 0.00 0.00 94 1018.3
20260902041606 72 0 0.0 1.0 0.00 0.00 0.00 94 1018.3
20260902040106 72 0 0.0 0.0 0.00 0.00 0.00 94 1018.4
20260902034601 73 0 0.0 1.0 0.00 0.00 0.00 94 1018.3
20260902033110 73 0 0.0 2.0 0.00 0.00 0.00 93 1018.3
20260902031604 73 0 0.0 0.0 0.00 0.00 0.00 93 1018.4
20260902030112 73 0 0.0 1.0 0.00 0.00 0.00 92 1018.5
20260902024600 74 0 0.0 0.0 0.00 0.00 0.00 92 1018.4
20260902023115 74 0 0.0 1.0 0.00 0.00 0.00 92 1018.4
20260902021618 74 0 0.0 0.0 0.00 0.00 0.00 91 1018.6
20260902020105 75 0 0.0 1.0 0.00 0.00 0.00 90 1018.6
20260902014602 75 0 0.0 1.0 0.00 0.00 0.00 89 1018.5
20260902013058 76 0 0.0 0.0 0.00 0.00 0.00 88 1018.4
20260902011601 76 0 0.0 0.0 0.00 0.00 0.00 86 1018.3
20260902004601 78 0 0.0 0.0 0.00 0.00 0.00 84 1018.2
20260902003106 79 0 0.0 0.0 0.00 0.00 0.00 82 1018.1
20260902001601 80 0 0.0 0.0 0.00 0.00 0.00 81 1018.1
20260902000103 81 0 0.0 0.0 0.00 0.00 0.00 79 1018.1
20260901234616 82 0 0.0 0.0 0.00 0.00 0.00 79 1018.2
20260901233105 82 0 0.0 0.0 0.00 0.00 0.00 76 1018.2
20260901231602 84 0 0.0 0.0 0.00 0.00 0.00 73 1018.2
20260901230139 85 0 0.0 1.0 0.00 0.00 0.00 70 1018.2
20260901224605 86 0 0.0 2.0 0.00 0.00 0.00 66 1018.0
20260901223114 87 0 0.0 2.0 0.00 0.00 0.00 63 1017.9
20260901221604 88 0 0.0 2.0 0.00 0.00 0.00 64 1017.6
20260901220104 89 259 0.0 4.0 0.00 0.00 0.00 61 1017.4
20260901214605 89 0 0.0 5.0 0.00 0.00 0.00 61 1017.2
20260901213105 89 179 0.0 3.0 0.00 0.00 0.00 61 1017.2
20260901211600 88 0 1.0 5.0 0.00 0.00 0.00 62 1017.3
20260901204601 90 0 0.0 3.0 0.00 0.00 0.00 59 1018.1
20260901203123 90 46 0.0 8.0 0.00 0.00 0.00 61 1018.3
20260901201612 90 309 2.0 6.0 0.00 0.00 0.00 60 1018.6
20260901200106 89 288 1.0 4.0 0.00 0.00 0.00 61 1018.8
20260901194607 89 0 2.0 7.0 0.00 0.00 0.00 62 1018.6
20260901193102 89 0 1.0 4.0 0.00 0.00 0.00 61 1018.9
20260901191604 89 0 1.0 7.0 0.00 0.00 0.00 61 1019.1
20260901190108 89 0 1.0 8.0 0.00 0.00 0.00 60 1019.3
20260901184557 89 277 2.0 8.0 0.00 0.00 0.00 61 1019.5
20260901183110 89 295 3.0 6.0 0.00 0.00 0.00 59 1019.6